Simultaneous Nadir Overpasses (SNOs) Predictions

Prediction of SNOs between AQUA and NOAA-19 Satellite Orbit:

Table of predicted SNOs for the next 14.0 days since TLE Epoch: 11/7/2015
Index Date (AQUA) Time (AQUA) Lat,Lon (AQUA) SZA (AQUA ) Date (NOAA-19) Time (NOAA-19) Lat,Lon (NOAA-19) SZA (NOAA-19 ) Distance(km) Time Diff (sec)
1 11/08/2015 11:01:30 80.56, -21.19 98.42 11/08/2015 11:00:58 80.56, -21.35 98.44 2.84 32
2 11/08/2015 11:50:54 -80.50, 147.11 81.69 11/08/2015 11:51:52 -80.49, 147.21 81.72 1.86 58
3 11/10/2015 16:35:12 -80.54, 75.56 80.98 11/10/2015 16:35:09 -80.55, 75.42 80.96 2.67 3
4 11/12/2015 21:19:29 -80.57, 4.23 80.33 11/12/2015 21:18:24 -80.57, 4.26 80.31 0.64 65
5 11/12/2015 22:08:54 80.51, 172.45 99.59 11/12/2015 22:09:25 80.52, 172.35 99.60 1.97 31
6 11/15/2015 02:53:11 80.55, 100.99 100.24 11/15/2015 02:52:40 80.56, 100.96 100.26 0.89 31
7 11/15/2015 03:42:36 -80.51, -90.95 79.83 11/15/2015 03:43:37 -80.51, -90.93 79.85 0.28 61
8 11/17/2015 08:26:53 -80.55,-162.47 79.19 11/17/2015 08:26:53 -80.55,-162.50 79.19 0.51 0
9 11/19/2015 13:11:09 -80.58, 126.23 78.62 11/19/2015 13:10:08 -80.58, 126.23 78.60 0.48 61




NCC Satellite Simultaneous Nadir Overpasses (SNOs) Prediction Service
